Вернуться в каталог

OPS 4682 DEB

АктивенPO
NORAD 38383·DEBRIS·🇺🇸 United States

Запущен Apr 3, 1965 с Vandenberg Space Force Base

Loading…

Ближайшие Пролёты (ближайшие 24 часа)

TLE

СвежийSource: Space-Track

Эпоха: Sep 14, 2026, 14:05 UTC

1 38383U 65027CL  26257.58745952 -.00000148  00000-0 -53833-3 0  9992
2 38383  90.2560  14.0083 0028201 234.6227 125.2258 12.97055284595191

Отслеживайте OPS 4682 DEB в реальном времени с AllMySat

Download on the App Store